Content
SEND FEEDBACK

Daily
Averages
Monthly
Summary
United States of America

NEW YORK - CENTRAL PARK, NEW YORK


Home > North America > United States > New York
Elevation: 14 feet     Latitude: 40 47N     Longitude: 073 58W

WEATHER
 
SELECT A DAY
Number of Records: 148,413;   Date Range: 11/1/95 - 9/21/14
 
SHARE

PRINT THIS DATA

[ ← Previous Day ]
WEATHER ALMANAC - APRIL 21, 2013
[ Next Day → ]
[ °C ]   °F
Weather ElementAverageHighLow
Temperature45.3 °F54 °F (2:51 pm)37 °F (5:51 am)
Dewpoint21.2 °F30 °F (11:51 pm)15.1 °F (4:51 pm)
Humidity39.7 %56 % (11:51 pm)22 % (4:51 pm)
Barometer30.53 in30.62 in (11:51 pm)30.36 in (1:51 am)
Wind Speed5.1 mph11.5 mph (8:51 am)
Wind Gust19.6 mph (3:51 am)
Weather ElementAverage
Visibility10 mi
Wind DirectionNNE (38.3 °)

Weather ElementTotal
Precipitation---
Heating Degree Days19.5 (Base 65)
Averaged from 23 records on April 21, 2013
WEATHER CONDITIONS BREAKOUT
WIND DIRECTION BREAKOUT
WEATHER BY HOUR - APRIL 21, 2013
[ °C ]   °F
Local TimeTemperatureDewpointHumidityBarometerVisibilityWind DirectionWind SpeedGust SpeedPrecipitationEventsConditions
1:51 AM41.0 °F16.0 °F36 %30.36 in10.0 miWNW (300°)9.2 mph17.3 mphClear
2:51 AM39.9 °F16.0 °F38 %30.38 in10.0 miVariable5.8 mphClear
3:51 AM39.0 °F18.0 °F43 %30.40 in10.0 miVariable6.9 mph19.6 mphClear
4:51 AM37.9 °F19.0 °F47 %30.42 in10.0 miVariable5.8 mphClear
5:51 AM37.0 °F19.9 °F50 %30.45 in10.0 miCalmClear
6:51 AM37.0 °F21.0 °F52 %30.49 in10.0 miVariable5.8 mphClear
7:51 AM37.9 °F19.9 °F48 %30.53 in10.0 miVariable3.5 mphClear
8:51 AM39.9 °F19.9 °F45 %30.54 in10.0 miENE (60°)11.5 mphClear
9:51 AM43.0 °F21.0 °F42 %30.56 in10.0 miENE (60°)9.2 mphClear
10:51 AM46.0 °F21.9 °F39 %30.58 in10.0 miVariable5.8 mphClear
11:51 AM48.0 °F21.9 °F36 %30.58 in10.0 miNE (50°)10.4 mphClear
12:51 PM51.1 °F23.0 °F33 %30.57 in10.0 miENE (70°)5.8 mphClear
1:51 PM51.1 °F19.0 °F28 %30.57 in10.0 miNorth (10°)6.9 mphClear
2:51 PM54.0 °F19.9 °F26 %30.56 in10.0 miNE (50°)10.4 mph17.3 mphClear
3:51 PM53.1 °F18.0 °F25 %30.54 in10.0 miENE (70°)9.2 mph17.3 mphClear
4:51 PM53.1 °F15.1 °F22 %30.55 in10.0 miNE (40°)5.8 mphClear
5:51 PM53.1 °F16.0 °F23 %30.56 in10.0 miCalmClear
6:51 PM48.9 °F25.0 °F39 %30.56 in10.0 miCalmClear
7:51 PM46.9 °F26.1 °F44 %30.58 in10.0 miSouth (170°)5.8 mphClear
8:51 PM46.0 °F26.1 °F46 %30.60 in10.0 miCalmClear
9:51 PM46.0 °F27.0 °F47 %30.61 in10.0 miCalmClear
10:51 PM46.0 °F27.0 °F47 %30.61 in10.0 miCalmClear
11:51 PM45.0 °F30.0 °F56 %30.62 in10.0 miCalmClear
Hourly data recorded from KNYC, located miles away from New York - Central Park, New York







STORIES FROM OUR PARTNERS